EST,Max TemperatureF,Mean TemperatureF,Min TemperatureF,Max Dew PointF,MeanDew PointF,Min DewpointF,Max Humidity, Mean Humidity, Min Humidity, Max Sea Level PressureIn, Mean Sea Level PressureIn, Min Sea Level PressureIn, Max VisibilityMiles, Mean VisibilityMiles, Min VisibilityMiles, Max Wind SpeedMPH, Mean Wind SpeedMPH, Max Gust SpeedMPH,PrecipitationIn, CloudCover, Events, WindDirDegrees
2012-11-1,51,45,39,36,30,23,79,58,36,29.82,29.75,29.69,10,10,10,21,12,25,0.00,7,,290
2012-11-2,42,38,34,31,27,25,75,64,53,30.09,29.96,29.83,10,10,10,17,9,21,0.00,7,,308
2012-11-3,46,38,30,29,28,26,85,67,49,30.20,30.16,30.10,10,10,10,12,5,17,0.00,2,,342
2012-11-4,39,34,28,27,26,24,85,70,54,30.22,30.19,30.16,10,10,10,12,5,14,0.00,7,,334
2012-11-5,43,34,25,26,23,20,88,69,49,30.24,30.20,30.18,10,10,8,12,2,13,0.00,1,,59
2012-11-6,45,33,20,27,24,17,92,69,45,30.17,30.08,29.97,10,9,5,13,3,20,0.00,0,,110
2012-11-7,49,38,27,33,29,24,92,73,54,30.16,30.05,29.97,10,8,5,14,4,17,0.00,2,,37
2012-11-8,49,37,25,31,27,21,88,69,50,30.25,30.19,30.16,10,8,4,9,2,12,0.00,0,,261
2012-11-9,56,41,25,43,30,23,92,70,47,30.24,30.17,30.09,10,5,1,12,4,18,0.06,2,Rain-Thunderstorm,187
2012-11-10,66,57,47,47,45,43,93,72,51,30.15,30.10,30.05,10,8,4,20,7,29,T,5,Rain-Thunderstorm,173
2012-11-11,67,60,53,44,40,35,59,48,37,30.16,30.09,29.98,10,10,10,25,13,35,0.00,0,,190
2012-11-12,61,47,32,54,40,21,96,70,43,30.31,30.04,29.91,10,7,2,25,13,32,0.79,7,Rain,239
2012-11-13,38,32,26,23,22,19,81,67,52,30.57,30.46,30.33,10,10,10,20,5,22,0.00,7,,287
2012-11-14,40,31,22,26,23,19,88,70,52,30.61,30.54,30.44,10,10,8,12,2,14,0.00,1,,114
2012-11-15,44,35,26,30,27,24,92,73,53,30.44,30.39,30.35,10,8,5,7,1,10,0.00,2,,328
2012-11-16,52,38,24,31,25,22,92,65,38,30.53,30.47,30.39,10,7,2,6,1,8,0.00,0,,327
2012-11-17,53,39,24,38,31,17,100,72,44,30.63,30.57,30.53,10,6,1,9,4,14,0.00,0,,92
2012-11-18,54,41,28,37,31,27,100,68,35,30.54,30.50,30.43,10,3,0,10,2,13,0.00,2,Fog,64
2012-11-19,54,41,27,34,28,0,100,71,41,30.42,30.34,30.19,10,6,0,6,1,7,0.00,1,Fog,90
2012-11-20,58,46,34,40,36,32,92,68,43,30.18,30.14,30.09,10,9,6,6,1,8,T,6,,84
2012-11-21,59,45,31,40,35,30,96,68,40,30.25,30.20,30.16,10,5,1,12,2,14,0.00,0,,237
2012-11-22,61,45,29,44,36,28,96,71,46,30.19,30.11,29.86,10,4,0,20,9,28,0.01,1,Fog-Rain,196
2012-11-23,54,43,32,48,33,22,89,74,59,30.06,29.89,29.77,10,9,4,31,19,43,0.13,7,Rain-Snow,252
2012-11-24,33,31,29,24,20,18,72,64,56,30.16,30.11,30.06,10,10,9,22,11,29,T,8,Snow,283
2012-11-25,40,33,26,24,22,19,81,66,50,30.08,29.96,29.88,10,10,8,17,8,23,0.00,4,,243
2012-11-26,41,32,23,27,23,20,88,70,51,30.31,30.19,30.04,10,9,4,15,5,20,0.00,5,,296
2012-11-27,35,28,21,20,16,15,77,61,44,30.40,30.33,30.29,10,10,10,10,4,15,0.00,2,,314
2012-11-28,41,33,24,23,20,17,75,62,48,30.36,30.32,30.26,10,10,10,20,10,24,0.00,4,,248
2012-11-29,47,38,29,27,24,21,75,59,42,30.35,30.29,30.22,10,10,7,16,7,22,0.00,1,,218
2012-11-30,50,42,34,38,31,28,92,67,42,30.23,30.19,30.13,10,9,4,14,4,18,0.00,6,,99